Location: Arboyeti
(42.1122°N, 44.6017°E)
Time: 20:37:41
(UTC+00:00)

COSMOS 2487 - Pass Details

Date: 19 April 2021
Orbit: 432 x 434 km, 74.7° (Epoch: 18 May)

Event Time Altitude Azimuth Distance (km) Brightness Sun altitude
Rises 16:42:12 0° 206° (SSW) 2,401 6.1 -10.3°
Reaches altitude 10° 16:44:16 10° 210° (SSW) 1,538 5.2 -10.7°
Maximum altitude 16:47:36 58° 290° (WNW) 514 3.0 -11.2°
Drops below altitude 10° 16:50:58 10° 11° (N) 1,552 5.3 -11.8°
Sets 16:53:04 0° 15° (NNE) 2,426 6.3 -12.1°
